Regional Weather Roundup
Issued by NWS

Home | Current Version | Previous Version | Graphics & Text | Print | Product List | Glossary On
Versions: 1 2 3 4 5 6 7 8 9 10 11 12 13 14 15 16 17 18 19 20 21 22 23 24 25 26 27 28 29 30 31 32 33 34 35 36 37 38 39 40 41 42 43 44 45 46 47 48 49 50
000
ASUS43 KMPX 231110
RWRMN
WEATHER ROUNDUP FOR MINNESOTA
NATIONAL WEATHER SERVICE TWIN CITIES/CHANHASSEN MN
600 AM CDT MON OCT 23 2017


NOTE: "FAIR" INDICATES FEW OR NO CLOUDS BELOW 12,000 FEET WITH NO
SIGNIFICANT WEATHER AND/OR OBSTRUCTIONS TO VISIBILITY. N/A MEANS
CURRENT SKY AND/OR WEATHER CONDITIONS ARE NOT AVAILABLE.

MNZ060>063-068>070-231200-
   Twin Cities Metro

CITY           SKY/WX    TMP DP  RH WIND       PRES   REMARKS
TWIN CITIES    CLOUDY    48  37  65 SE6       29.77F
ST PAUL        PTCLDY    49  38  65 SE9       29.78F
CRYSTAL        CLOUDY    51  33  50 S7        29.74F
BLAINE         CLOUDY    52  36  54 S6        29.75F
LAKEVILLE        N/A     46  37  71 S6        29.78F
EDEN PRAIRIE   CLOUDY    50  35  56 S8        29.76F
SOUTH ST PAUL  CLOUDY    51  35  54 S5        29.78S
LAKE ELMO      MOCLDY    50  37  62 S9        29.79S
$$
MNZ001>005-007-008-013>017-022>024-027-028-231200-
   Northwest Minnesota

CITY           SKY/WX    TMP DP  RH WIND       PRES   REMARKS
BEMIDJI        CLOUDY    49  42  77 SW8       29.64R
HALLOCK        PTCLDY    45  39  81 NW14G21   29.63R
ROSEAU         CLOUDY    48  43  81 W6        29.58R
WARROAD        CLOUDY    48  45  87 SW5       29.57R
THIEF RVR FALL CLOUDY    48  40  73 W18       29.63R
CROOKSTON      CLOUDY    46  41  81 NW12      29.66R
FOSSTON        CLOUDY    46  43  87 SW9       29.65S
DETROIT LAKES  CLOUDY    50  45  81 W12       29.71R
MOORHEAD       PTCLDY    52  37  58 W26G32    29.72R
PARK RAPIDS    PTCLDY    49  42  77 W12       29.67R
MAHNOMEN       FAIR      47  43  86 W13       29.67R
$$
MNZ006-009>011-018-025>026-231200-
   North Central Minnesota

CITY           SKY/WX    TMP DP  RH WIND       PRES   REMARKS
BAUDETTE       CLOUDY    49  48  97 SW5       29.57F
FLAG ISLAND    CLOUDY    52  37  58 SW7       29.54S
INTL FALLS     LGT RAIN  48  43  82 S5        29.61S
WASKISH        LGT RAIN  50  46  87 SW6       29.60F
BIG FORK       CLOUDY    48  43  81 CALM      29.63S
LONGVILLE      CLOUDY    52  39  62 SW6       29.64S
GRAND RAPIDS   CLOUDY    51  38  60 S9        29.66F
CRANE LAKE     CLOUDY    52  34  50 S6        29.65S
ORR            RAIN      48  36  61 S6        29.63R
COOK           LGT RAIN  52  36  54 S7        29.65S
WALKER         FAIR      50  38  63 W7        29.64R
$$
MNZ012-019>021-037-231200-
   Northeast Minnesota

CITY           SKY/WX    TMP DP  RH WIND       PRES   REMARKS
DULUTH         CLOUDY    51  34  52 S13       29.69F
ELY            CLOUDY    52  30  43 S8        29.65F
HIBBING        LGT RAIN  49  34  56 S5        29.66F
EVELETH        CLOUDY    53  23  31 S7        29.67F
DULUTH HARBOR  CLOUDY    55  39  54 SW10      29.71F
TWO HARBORS    CLOUDY    54  39  58 S6        29.68F
SILVER BAY     CLOUDY    52  39  62 S5        29.69F
G MARAIS ARPRT CLOUDY    46  37  71 S6        29.75F
$$
MNZ029>031-032-039>041-046>048-054>057-064-231200-
   West Central Minnesota

CITY           SKY/WX    TMP DP  RH WIND       PRES   REMARKS
FERGUS FALLS   PTCLDY    48  39  71 W8        29.74R
WHEATON        MOCLDY    54  37  54 W10G20    29.79R
MORRIS         CLEAR     52  41  66 W16       29.76R
ALEXANDRIA     CLEAR     54  42  64 W17G24    29.75R
ELBOW LAKE     FAIR      49  41  72 NW10      29.75R
WADENA         CLOUDY    52  43  71 W9        29.69R
GLENWOOD       PTCLDY    50  43  76 W9        29.75R
APPLETON       PTCLDY    55  41  58 W15       29.78R
BENSON         PTCLDY    50  43  76 NW9       29.78R
ORTONVILLE     MOCLDY    54  39  58 W15G23    29.80R
MADISON        MOCLDY    55  43  62 W20       29.81R
WILLMAR        FAIR      48  41  76 W10       29.78R
$$
MNZ033>034-036-042>043-049>051-058-059-231200-
   Central Minnesota

CITY           SKY/WX    TMP DP  RH WIND       PRES   REMARKS
ST CLOUD       PTCLDY    48  39  71 S9        29.74S
SAUK CENTRE    FAIR      53  42  67 W10G18    29.74R
PAYNESVILLE    PTCLDY    49  40  69 SW8       29.76R
AITKIN         CLOUDY    52  36  54 S9        29.66F
PINE RIVER     CLOUDY    52  37  58 SW5       29.70S
BRAINERD       CLOUDY    53  37  54 SW9       29.69R
STAPLES        PTCLDY    52  39  62 W7        29.69R
LONG PRAIRIE   FAIR      52  41  66 SW8       29.72R
LITTLE FALLS   MOCLDY    50  32  50 SW5       29.71R
LITCHFIELD     PTCLDY    48  37  66 CALM      29.76F
BUFFALO        CLOUDY    49  37  61 S3        29.76S
MAPLE LAKE     CLOUDY    49  39  69 SW5       29.76S
HUTCHINSON     PTCLDY    45  39  79 SW3       29.78R
$$
MNZ037-044-045-052-053-231200-
   East Central Minnesota

CITY           SKY/WX    TMP DP  RH WIND       PRES   REMARKS
PRINCETON      PTCLDY    52  37  58 S5        29.73F
MORA           CLOUDY    50  36  57 S7        29.74F
CAMBRIDGE      CLOUDY    54  37  54 S8        29.74F
RUSH CITY      CLOUDY    52  35  53 S9        29.74F
MOOSE LAKE     CLOUDY    52  32  46 SW10      29.69F
HINCKLEY       CLOUDY    52  36  54 S8        29.73F
CLOQUET        PTCLDY    52  30  43 S6        29.69F
MCGREGOR       CLOUDY    52  36  54 S8        29.68F
$$
MNZ071>073-080-081-089-090-097-098-231200-
   Southwest Minnesota

CITY           SKY/WX    TMP DP  RH WIND       PRES   REMARKS
MONTEVIDEO     PTCLDY    54  43  66 NW10G18   29.79R
GRANITE FALLS  PTCLDY    52  42  68 W13       29.81R
CANBY          CLOUDY    55  41  58 NW22G32   29.83R
MARSHALL       MOCLDY    54  41  61 NW18      29.83R
REDWOOD FALLS  PTCLDY    51  35  54 W12       29.79R
OLIVIA         PTCLDY    48  37  66 W9        29.77R
PIPESTONE      CLOUDY    52  39  62 NW14      29.87R
WORTHINGTON    CLOUDY    48  35  60 W14       29.84R
JACKSON        PTCLDY    45  34  65 W9        29.83R
TRACY          MOCLDY    55  41  59 W15G22    29.83R
SLAYTON        MOCLDY    52  38  59 W17       29.85R
$$
MNZ065>067-074>077-082>085-091>093-231200-
   South Central Minnesota

CITY           SKY/WX    TMP DP  RH WIND       PRES   REMARKS
MANKATO        CLEAR     44  35  70 S7        29.80S
NEW ULM          N/A     45  36  70 SW6       29.79R
ST JAMES       PTCLDY    45  36  70 SW7       29.81R
FAIRMONT       CLEAR     43  36  76 SW8       29.81F
GLENCOE        PTCLDY    47  38  71 SW3       29.77R
FARIBAULT      CLEAR     46  37  71 S7        29.80F
OWATONNA       CLOUDY    46  37  71 S12       29.80F
WASECA         PTCLDY    45  34  65 S6        29.81F
$$
MNZ078>079-086>088-094>096-231200-
   Southeast Minnesota

CITY           SKY/WX    TMP DP  RH WIND       PRES   REMARKS
ROCHESTER      CLEAR     45  39  79 S13       29.83F
RED WING       CLOUDY    52  36  54 CALM      29.80F
STANTON        CLOUDY    49  37  64 S8        29.78F
DODGE CENTER   CLOUDY    46  37  71 S12       29.81F
WINONA         PTCLDY    48  41  76 SE7       29.86F
AUSTIN         PTCLDY    45  37  76 S6        29.82F
PRESTON        CLEAR     44  38  80 S9        29.87S
$$
ABBREVIATIONS USED IN REMARKS
   TC - TEMPERATURES IN CELSIUS
  WCI - WIND CHILL INDEX
   HX - HEAT INDEX
  VSB - VISIBILITY
$$




USA.gov is the U.S. government's official web portal to all federal, state and local government web resources and services.